Date,TemperatureHighF,TemperatureAvgF,TemperatureLowF,DewpointHighF,DewpointAvgF,DewpointLowF,HumidityHigh,HumidityAvg,HumidityLow,PressureMaxIn,PressureMinIn,WindSpeedMaxMPH,WindSpeedAvgMPH,GustSpeedMaxMPH,PrecipitationSumIn
2013-2-1,39,30,23,13,10,6,58,42,28,29.99,29.84,4,2,8,0.01
2013-2-2,46,33,22,9,5,0,49,31,15,30.10,29.97,2,0,5,0.00
2013-2-3,43,32,21,11,4,-6,46,31,13,30.04,29.70,4,0,9,0.00
2013-2-4,45,34,23,6,1,-2,36,25,15,29.75,29.64,3,1,7,0.00
2013-2-5,50,34,20,11,8,3,59,35,15,29.82,29.68,1,0,5,0.00
2013-2-6,45,35,27,16,12,8,59,39,23,29.69,29.54,2,0,7,0.00
2013-2-7,42,27,13,19,9,-13,84,52,9,29.93,29.69,4,0,15,0.00
2013-2-8,36,29,23,19,15,8,68,55,49,29.92,29.68,8,2,8,0.00
2013-2-10,30,22,14,15,7,-6,90,58,21,29.81,29.56,3,1,9,0.00
2013-2-11,17,11,0,13,7,-4,90,85,82,30.05,29.81,1,0,9,0.00
2013-2-12,26,12,-3,11,5,-7,90,72,47,30.16,30.05,1,0,9,0.19
2013-2-13,37,25,12,13,9,5,76,51,32,30.08,29.87,4,1,10,0.07
2013-2-14,35,24,11,17,10,4,89,59,28,30.09,29.85,2,0,9,0.01
2013-2-15,32,22,9,12,4,-4,89,49,21,30.21,30.06,3,1,14,0.00
2013-2-16,43,30,17,11,6,2,57,37,24,30.18,29.83,3,1,9,0.00
2013-2-17,43,33,22,12,0,-8,64,26,12,29.83,29.37,3,0,9,0.00
2013-2-18,30,21,8,13,2,-6,81,45,22,29.96,29.40,2,0,9,0.00
2013-2-19,38,24,6,9,-1,-16,79,39,10,29.98,29.60,3,0,13,0.00
2013-2-20,33,23,16,20,16,4,92,75,49,29.60,29.31,1,0,9,0.00
2013-2-21,32,21,12,24,17,9,100,86,63,29.69,29.36,2,0,9,0.20
2013-2-22,29,18,10,18,12,6,93,79,48,29.84,29.67,2,0,9,0.03
2013-2-23,37,24,14,20,10,1,90,57,37,29.81,29.47,4,1,9,0.06
2013-2-24,24,17,2,20,13,-2,94,84,60,29.94,29.41,2,0,9,0.01
2013-2-25,34,18,-1,14,6,-4,92,62,35,30.06,29.77,2,0,9,0.19
2013-2-26,27,19,5,18,10,1,88,69,44,30.00,29.56,1,0,9,0.00
2013-2-27,30,14,-2,9,0,-6,91,58,25,30.27,30.00,2,0,9,0.08
2013-2-28,35,22,7,10,1,-5,61,41,25,30.24,30.09,3,1,9,0.01